Regional Weather Roundup
Issued by NWS

Home | Current Version | Previous Version | Text Only | Print | Product List | Glossary Off
Versions: 1 2 3 4 5 6 7 8 9 10 11 12 13 14 15 16 17 18 19 20 21 22 23 24 25 26 27 28 29 30 31 32 33 34 35 36 37 38 39 40 41 42 43 44 45 46 47 48 49 50

000
ASUS44 KMEG 160810
RWRTN
TENNESSEE HOURLY STATE WEATHER ROUNDUP
NATIONAL WEATHER SERVICE MEMPHIS TN
300 AM CDT WED APR 16 2014

TNZ002-004-019-021-049-052-054-088>092-160900-
WEST TENNESSEE

CITY           SKY/WX    TMP DP  RH WIND       PRES   REMARKS
MEMPHIS INTL   CLEAR     38  26  62 E7        30.22F WCI  33
NWS MEMPHIS      N/A     32 N/A N/A MISG        N/A
JACKSON        CLEAR     29  26  89 CALM      30.26F
DYERSBURG      CLEAR     36  27  69 E5        30.28S WCI  32
UNION CITY     CLEAR     34  25  69 CALM      30.26F
PARIS          CLEAR     30  24  78 CALM      30.28R
LEXINGTON      CLEAR     27  27 100 CALM      30.25F
SAVANNAH       CLEAR     28  27  96 CALM      30.26S
$$

TNZ008-025-027-028-033-062-065-066-160900-
NORTH MIDDLE TENNESSEE

CITY           SKY/WX    TMP DP  RH WIND       PRES   REMARKS
NASHVILLE      CLEAR     34  23  64 N5        30.29R WCI  30
DICKSON        CLEAR     32  21  64 NE5       30.26S WCI  27
PORTLAND       CLEAR     28  25  86 CALM      30.28R
CLARKSVILLE    CLEAR     29  26  89 CALM      30.30R
SMYRNA         CLEAR     34  22  61 NE7       30.30R WCI  28
MURFREESBORO   CLEAR     31  25  78 CALM      30.28R
GALLATIN       CLEAR     31  22  69 N6        30.29R WCI  25
CROSSVILLE     CLEAR     30  21  69 NE7       30.22S WCI  23
$$

TNZ061-075-076-078-094-096-097-160900-
SOUTH MIDDLE TENNESSEE

CITY           SKY/WX    TMP DP  RH WIND       PRES   REMARKS
LEWISBURG      CLEAR     29  25  85 CALM      30.26S
FAYETTEVILLE   CLEAR     30  22  72 N9        30.23F WCI  22
TULLAHOMA      CLEAR     30  21  69 N5        30.24F WCI  25
WINCHESTER     CLEAR     27  25  93 CALM      30.25R
MCMINNVILLE    CLEAR     28  25  86 CALM      30.25R
COLUMBIA       CLEAR     28  27  93 CALM      30.25S
SHELBYVILLE    CLEAR     28  25  86 CALM      30.27S
$$

TNZ017-018-042-046-047-160900-
NORTHEAST TENNESSEE

CITY           SKY/WX    TMP DP  RH WIND       PRES   REMARKS
TRI CITIES     CLEAR     29  17  61 N5        30.25R WCI  24
ELIZABETHTON   SUNNY     27  19  74 CALM      30.23R
$$

TNZ012-013-036-069-073-074-160900-
CENTRAL EAST TENNESSEE

CITY           SKY/WX    TMP DP  RH WIND       PRES   REMARKS
KNOXVILLE      CLEAR     33  21  61 N9        30.25R WCI  25
OAK RIDGE      CLEAR     31  26  82 CALM      30.29R
$$

TNZ083-085-099-160900-
SOUTHEAST TENNESSEE

CITY           SKY/WX    TMP DP  RH WIND       PRES   REMARKS
CHATTANOOGA    CLEAR     37  24  59 N10       30.24R WCI  30
$$

SKY/WX REPORTED AS FAIR MEANS FEW OR NO CLOUDS BELOW
12 THOUSAND FEET.




USA.gov is the U.S. government's official web portal to all federal, state and local government web resources and services.